TimeCST,TemperatureF,Dew PointF,Humidity,Sea Level PressureIn,VisibilityMPH,Wind Direction,Wind SpeedMPH,Gust SpeedMPH,PrecipitationIn,Events,Conditions,WindDirDegrees,DateUTC
12:13 AM,37.4,33.8,87,29.73,10.0,ESE,11.5,-,N/A,,Overcast,110,2012-12-15 06:13:00
12:33 AM,37.4,33.8,87,29.73,10.0,ESE,11.5,-,N/A,,Overcast,110,2012-12-15 06:33:00
12:53 AM,37.4,33.8,87,29.72,10.0,ESE,10.4,-,N/A,,Overcast,110,2012-12-15 06:53:00
1:13 AM,37.4,33.8,87,29.71,10.0,ESE,10.4,-,N/A,,Overcast,110,2012-12-15 07:13:00
1:33 AM,37.4,33.8,87,29.70,10.0,ESE,9.2,-,N/A,,Overcast,110,2012-12-15 07:33:00
1:53 AM,37.4,33.8,87,29.69,10.0,East,9.2,-,N/A,,Overcast,100,2012-12-15 07:53:00
2:13 AM,37.4,33.8,87,29.68,10.0,ESE,10.4,-,N/A,,Overcast,110,2012-12-15 08:13:00
2:33 AM,37.4,33.8,87,29.68,10.0,ESE,10.4,-,N/A,,Overcast,110,2012-12-15 08:33:00
2:53 AM,37.4,33.8,87,29.68,10.0,ESE,9.2,-,N/A,,Light Drizzle,110,2012-12-15 08:53:00
3:13 AM,37.4,33.8,87,29.69,10.0,SE,11.5,-,N/A,,Overcast,130,2012-12-15 09:13:00
3:33 AM,37.4,33.8,87,29.68,10.0,ESE,10.4,-,N/A,,Overcast,110,2012-12-15 09:33:00
3:53 AM,37.4,33.8,87,29.66,10.0,ESE,12.7,-,N/A,,Overcast,110,2012-12-15 09:53:00
4:13 AM,37.4,33.8,87,29.65,7.0,ESE,10.4,-,N/A,,Overcast,110,2012-12-15 10:13:00
4:33 AM,35.6,35.6,100,29.65,3.0,ESE,10.4,-,N/A,Rain,Rain,110,2012-12-15 10:33:00
4:53 AM,35.6,35.6,100,29.64,4.0,ESE,8.1,-,N/A,,Light Drizzle,110,2012-12-15 10:53:00
5:13 AM,35.6,35.6,100,29.64,3.0,East,9.2,-,N/A,,Drizzle,100,2012-12-15 11:13:00
5:33 AM,35.6,35.6,100,29.62,4.0,East,6.9,-,N/A,Rain,Light Rain,90,2012-12-15 11:33:00
5:53 AM,35.6,35.6,100,29.61,4.0,East,8.1,-,N/A,,Drizzle,80,2012-12-15 11:53:00
6:13 AM,35.6,35.6,100,29.61,4.0,East,9.2,-,N/A,,Drizzle,80,2012-12-15 12:13:00
6:33 AM,35.6,35.6,100,29.60,3.0,East,10.4,-,N/A,,Drizzle,90,2012-12-15 12:33:00
6:53 AM,35.6,35.6,100,29.59,3.0,East,8.1,-,N/A,,Light Drizzle,80,2012-12-15 12:53:00
7:13 AM,35.6,35.6,100,29.58,3.0,East,9.2,-,N/A,,Light Drizzle,80,2012-12-15 13:13:00
7:33 AM,35.6,35.6,100,29.58,2.5,East,10.4,-,N/A,Rain,Light Rain,80,2012-12-15 13:33:00
7:53 AM,35.6,35.6,100,29.58,2.5,East,8.1,-,N/A,,Drizzle,80,2012-12-15 13:53:00
8:13 AM,35.6,35.6,100,29.58,1.8,East,9.2,-,N/A,,Drizzle,80,2012-12-15 14:13:00
8:33 AM,35.6,35.6,100,29.58,1.5,East,8.1,-,N/A,,Drizzle,80,2012-12-15 14:33:00
8:53 AM,35.6,35.6,100,29.58,1.2,East,8.1,-,N/A,,Drizzle,80,2012-12-15 14:53:00
9:13 AM,35.6,35.6,100,29.57,1.0,East,8.1,-,N/A,Rain,Rain,80,2012-12-15 15:13:00
9:33 AM,35.6,35.6,100,29.57,1.0,East,6.9,-,N/A,Rain,Rain,80,2012-12-15 15:33:00
9:53 AM,35.6,35.6,100,29.56,1.0,East,6.9,-,N/A,,Drizzle,80,2012-12-15 15:53:00
10:13 AM,35.6,35.6,100,29.56,1.2,ENE,6.9,-,N/A,,Light Drizzle,70,2012-12-15 16:13:00
10:33 AM,35.6,35.6,100,29.56,1.2,ENE,5.8,-,N/A,,Light Drizzle,70,2012-12-15 16:33:00
10:53 AM,35.6,35.6,100,29.55,1.0,ENE,4.6,-,N/A,,Light Drizzle,70,2012-12-15 16:53:00
11:13 AM,35.6,35.6,100,29.54,0.8,Calm,Calm,-,N/A,,Light Drizzle,0,2012-12-15 17:13:00
11:33 AM,35.6,35.6,100,29.54,0.5,NE,4.6,-,N/A,,Light Drizzle,50,2012-12-15 17:33:00
11:53 AM,35.6,35.6,100,29.53,0.5,NE,3.5,-,N/A,,Light Drizzle,40,2012-12-15 17:53:00
12:13 PM,35.6,35.6,100,29.52,0.5,ENE,4.6,-,N/A,,Drizzle,60,2012-12-15 18:13:00
12:33 PM,35.6,35.6,100,29.52,0.8,ENE,3.5,-,N/A,Rain,Rain,60,2012-12-15 18:33:00
12:53 PM,35.6,35.6,100,29.51,1.0,NE,4.6,-,N/A,,Light Drizzle,50,2012-12-15 18:53:00
1:13 PM,35.6,35.6,100,29.50,1.2,Calm,Calm,-,N/A,,Light Drizzle,0,2012-12-15 19:13:00
1:33 PM,35.6,35.6,100,29.50,0.8,NNE,3.5,-,N/A,,Overcast,30,2012-12-15 19:33:00
1:53 PM,35.6,35.6,100,29.49,0.5,NNE,4.6,-,N/A,,Light Drizzle,20,2012-12-15 19:53:00
2:13 PM,35.6,35.6,100,29.50,0.5,NNE,3.5,-,N/A,,Light Drizzle,30,2012-12-15 20:13:00
2:33 PM,35.6,35.6,100,29.50,0.8,NNE,4.6,-,N/A,,Drizzle,20,2012-12-15 20:33:00
2:53 PM,35.6,35.6,100,29.50,0.8,NNE,3.5,-,N/A,Rain,Light Rain,20,2012-12-15 20:53:00
3:13 PM,35.6,35.6,100,29.51,1.2,Calm,Calm,-,N/A,Rain,Light Rain,0,2012-12-15 21:13:00
3:33 PM,35.6,35.6,100,29.51,1.8,North,3.5,-,N/A,Rain,Light Rain,350,2012-12-15 21:33:00
3:53 PM,35.6,35.6,100,29.52,2.0,NNW,3.5,-,N/A,Rain,Rain,330,2012-12-15 21:53:00
4:13 PM,33.8,33.8,100,29.52,2.5,NNW,4.6,-,N/A,,Light Drizzle,330,2012-12-15 22:13:00
4:33 PM,33.8,33.8,100,29.53,2.5,NNW,4.6,-,N/A,,Overcast,330,2012-12-15 22:33:00
4:53 PM,33.8,33.8,100,29.53,4.0,NNW,4.6,-,N/A,,Overcast,330,2012-12-15 22:53:00
5:13 PM,33.8,33.8,100,29.54,4.0,NW,4.6,-,N/A,Snow,Light Snow,310,2012-12-15 23:13:00
5:33 PM,33.8,33.8,100,29.54,3.0,NW,4.6,-,N/A,,Overcast,320,2012-12-15 23:33:00
5:53 PM,33.8,33.8,100,29.54,2.5,NW,5.8,-,N/A,Snow,Light Snow,320,2012-12-15 23:53:00
6:13 PM,33.8,33.8,100,29.54,2.5,NW,5.8,-,N/A,Snow,Light Snow,320,2012-12-16 00:13:00
6:33 PM,33.8,33.8,100,29.55,3.0,NW,6.9,-,N/A,,Overcast,320,2012-12-16 00:33:00
6:53 PM,33.8,33.8,100,29.55,3.0,NW,6.9,-,N/A,,Overcast,320,2012-12-16 00:53:00
7:13 PM,33.8,33.8,100,29.55,2.5,NW,6.9,-,N/A,Snow,Light Snow,320,2012-12-16 01:13:00
7:33 PM,33.8,33.8,100,29.56,2.5,NW,6.9,-,N/A,Snow,Light Snow,310,2012-12-16 01:33:00
7:53 PM,33.8,33.8,100,29.56,2.0,NW,6.9,-,N/A,Snow,Light Snow,310,2012-12-16 01:53:00
8:13 PM,33.8,33.8,100,29.57,2.5,NW,8.1,-,N/A,Snow,Light Snow,310,2012-12-16 02:13:00
8:33 PM,33.8,33.8,100,29.57,2.5,WNW,8.1,-,N/A,Snow,Light Snow,300,2012-12-16 02:33:00
8:53 PM,33.8,33.8,100,29.57,1.8,NW,9.2,-,N/A,Snow,Light Snow,310,2012-12-16 02:53:00
9:13 PM,33.8,33.8,100,29.58,-9999.0,NW,8.1,-,N/A,,Overcast,310,2012-12-16 03:13:00
9:33 PM,33.8,33.8,100,29.58,-9999.0,WNW,8.1,-,N/A,,Overcast,300,2012-12-16 03:33:00
9:53 PM,33.8,33.8,100,29.57,-9999.0,NW,9.2,-,N/A,,Overcast,310,2012-12-16 03:53:00
10:13 PM,33.8,33.8,100,29.58,-9999.0,NW,8.1,-,N/A,,Overcast,310,2012-12-16 04:13:00
10:33 PM,33.8,33.8,100,29.58,-9999.0,WNW,9.2,-,N/A,,Overcast,300,2012-12-16 04:33:00
10:53 PM,33.8,33.8,100,29.58,-9999.0,NW,10.4,-,N/A,,Overcast,310,2012-12-16 04:53:00
11:13 PM,33.8,33.8,100,29.58,-9999.0,WNW,9.2,-,N/A,,Overcast,300,2012-12-16 05:13:00
11:33 PM,33.8,33.8,100,29.58,2.5,NW,9.2,17.3,N/A,,Overcast,310,2012-12-16 05:33:00
11:53 PM,33.8,33.8,100,29.58,2.5,WNW,10.4,-,N/A,,Overcast,300,2012-12-16 05:53:00